Flag Weather past 2 weeks in Seevetal, Lower Saxony, Germany

Now
41 °F

Partly sunny.


Feels Like: 34 °F
Forecast: 34 / 39 °F
Wind: 12 mph from Southeast

Location: Hamburg-Finkenwerder

Current Time: Nov 26, 2014 at 12:52:24 PM

Latest Report: Nov 26, 2014 at 12:20 PM


Visibility: N/A

Pressure: 30.15 "Hg

Humidity: 87%

Dew point: 37 °F

Location of SeevetalLocation

Historic Weather in Seevetal — Graph

°F

Seevetal temperature yesterday

Maximum temperature yesterday: 45 °F (at 11:50 AM)
Minimum temperature yesterday: 36 °F (at 5:56 AM)
Average temperature yesterday: 39 °F

Past Weeks' High & Low Weather Summary

 TemperatureHumidityPressure
High54 °F (Nov 14, 1:20 PM)100% (Nov 11, 11:02 AM)30.39 "Hg (Nov 11, 11:02 AM)
Low32 °F (Nov 21, 5:50 AM)76% (Nov 24, 2:50 PM)29.65 "Hg (Nov 15, 3:20 PM)
Average46 °F94%30.03 "Hg
* Reported Nov 11 11:02 AM — Nov 26 11:50 AM, Seevetal, Weather by CustomWeather, © 2014

Note: Actual official high and low records may vary slightly from our data, if they occured in-between our weather recording intervals... More about our weather records

Advertising

Seevetal weather history for previous 24 hours

 ConditionsComfort  
Time TempWeatherWind HumidityBarometerVisibility
11:50 AM
Nov 26
39 °FPartly sunny.13 mph93%30.18 "HgN/A
11:20 AM39 °FPartly sunny.12 mph93%30.18 "HgN/A
10:50 AM39 °FPartly sunny.12 mph93%30.18 "HgN/A
10:20 AM39 °FPartly sunny.12 mph93%30.18 "HgN/A
9:50 AM39 °FPartly sunny.15 mph93%30.21 "HgN/A
9:20 AM39 °FPartly sunny.8 mph93%30.18 "HgN/A
8:50 AM39 °FPartly sunny.12 mph93%30.18 "HgN/A
8:20 AM39 °FPartly sunny.12 mph93%30.18 "HgN/A
7:50 AM39 °FPassing clouds.12 mph100%30.21 "Hg6 mi
7:20 AM39 °FPassing clouds.13 mph100%30.21 "Hg5 mi
6:50 AM37 °FPassing clouds.13 mph100%30.21 "HgN/A
6:20 AM37 °FPassing clouds.10 mph100%30.21 "HgN/A
5:50 AM37 °FLow clouds.12 mph100%30.21 "Hg4 mi
6:50 PM
Nov 25
39 °FFog.6 mph100%30.30 "Hg0 mi
6:20 PM39 °FFog.3 mph100%30.30 "Hg0 mi
5:50 PM37 °FFog.3 mph100%30.30 "Hg0 mi
5:20 PM39 °FFog.3 mph100%30.33 "Hg0 mi
4:50 PM39 °FFog.3 mph100%30.33 "Hg0 mi
4:20 PM39 °FFog.2 mph100%30.33 "Hg0 mi
3:50 PM41 °FSnow. Light fog.3 mph100%30.33 "Hg1 mi
3:20 PM41 °FSnow. Fog.1 mph100%30.33 "Hg1 mi
2:50 PM43 °FSnow. Fog.3 mph100%30.33 "Hg2 mi
2:20 PM43 °FSnow. Fog.2 mph100%30.33 "Hg1 mi
1:50 PM43 °FFog.3 mph100%30.33 "Hg1 mi
1:20 PM43 °FQuite cool.3 mph100%30.33 "Hg1 mi
12:50 PM43 °FFog.3 mph100%30.33 "Hg2 mi
12:20 PM45 °FFog.1 mph100%30.33 "Hg2 mi
Weather by CustomWeather, © 2014

See weather overviewHow to use our weather pages